Time,TemperatureF,DewpointF,PressureIn,WindDirection,WindDirectionDegrees,WindSpeedMPH,WindSpeedGustMPH,Humidity,HourlyPrecipIn,Conditions,Clouds,dailyrainin,SolarRadiationWatts/m^2,SoftwareType,DateUTC
2013-04-01 00:10:00,53.9,53.0,29.84,WSW,240,0.0,0.0,98,0.00,,,0.00,0,weatherlink.com 1.10,2013-04-01 04:10:00,
2013-04-01 00:25:00,53.8,53.0,29.84,WSW,240,0.0,0.0,98,0.00,,,0.00,0,weatherlink.com 1.10,2013-04-01 04:25:00,
2013-04-01 00:40:00,53.6,53.0,29.83,WSW,240,0.0,0.0,98,0.00,,,0.00,0,weatherlink.com 1.10,2013-04-01 04:40:00,
2013-04-01 00:55:00,53.7,53.0,29.84,WSW,240,0.0,1.0,98,0.01,,,0.01,0,weatherlink.com 1.10,2013-04-01 04:55:00,
2013-04-01 01:10:00,53.8,53.0,29.84,SSW,205,1.0,2.0,98,0.01,,,0.01,0,weatherlink.com 1.10,2013-04-01 05:10:00,
2013-04-01 01:25:00,53.8,53.0,29.84,WSW,254,1.0,3.0,98,0.01,,,0.01,0,weatherlink.com 1.10,2013-04-01 05:25:00,
2013-04-01 01:40:00,53.6,53.0,29.84,WNW,296,0.0,1.0,98,0.01,,,0.01,0,weatherlink.com 1.10,2013-04-01 05:40:00,
2013-04-01 01:55:00,53.4,53.0,29.83,WNW,296,0.0,1.0,98,0.00,,,0.01,0,weatherlink.com 1.10,2013-04-01 05:55:00,
2013-04-01 02:10:00,53.0,53.0,29.83,WNW,292,0.0,1.0,98,0.00,,,0.01,0,weatherlink.com 1.10,2013-04-01 06:10:00,
2013-04-01 02:25:00,52.8,52.0,29.84,South,184,1.0,3.0,98,0.00,,,0.01,0,weatherlink.com 1.10,2013-04-01 06:25:00,
2013-04-01 02:40:00,52.4,52.0,29.83,SSW,207,0.0,2.0,97,0.00,,,0.01,0,weatherlink.com 1.10,2013-04-01 06:40:00,
2013-04-01 02:56:00,51.8,51.0,29.83,SSW,207,0.0,1.0,97,0.00,,,0.01,0,weatherlink.com 1.10,2013-04-01 06:56:00,
2013-04-01 03:11:00,51.2,50.0,29.83,SSW,207,0.0,1.0,97,0.00,,,0.01,0,weatherlink.com 1.10,2013-04-01 07:11:00,
2013-04-01 03:26:00,50.6,50.0,29.83,SSW,208,0.0,2.0,97,0.00,,,0.01,0,weatherlink.com 1.10,2013-04-01 07:26:00,
2013-04-01 03:41:00,49.9,49.0,29.82,SSE,147,0.0,3.0,97,0.00,,,0.01,0,weatherlink.com 1.10,2013-04-01 07:41:00,
2013-04-01 03:56:00,49.3,49.0,29.82,South,191,0.0,0.0,97,0.00,,,0.01,0,weatherlink.com 1.10,2013-04-01 07:56:00,
2013-04-01 04:11:00,49.0,48.0,29.83,South,190,2.0,2.0,97,0.00,,,0.01,0,weatherlink.com 1.10,2013-04-01 08:11:00,
2013-04-01 04:26:00,48.5,48.0,29.83,South,190,0.0,3.0,97,0.01,,,0.02,0,weatherlink.com 1.10,2013-04-01 08:26:00,
2013-04-01 04:56:00,47.8,47.0,29.83,South,190,1.0,2.0,97,0.01,,,0.02,0,weatherlink.com 1.10,2013-04-01 08:56:00,
2013-04-01 05:11:00,47.3,46.0,29.83,South,190,0.0,1.0,96,0.01,,,0.02,0,weatherlink.com 1.10,2013-04-01 09:11:00,
2013-04-01 05:41:00,45.9,45.0,29.84,South,190,0.0,0.0,96,0.00,,,0.02,0,weatherlink.com 1.10,2013-04-01 09:41:00,
2013-04-01 05:56:00,45.4,45.0,29.85,South,190,0.0,0.0,97,0.00,,,0.02,0,weatherlink.com 1.10,2013-04-01 09:56:00,
2013-04-01 06:11:00,44.9,44.0,29.85,South,190,0.0,0.0,96,0.00,,,0.02,0,weatherlink.com 1.10,2013-04-01 10:11:00,
2013-04-01 06:26:00,44.3,43.0,29.86,South,190,0.0,0.0,96,0.00,,,0.02,0,weatherlink.com 1.10,2013-04-01 10:26:00,
2013-04-01 06:41:00,43.6,43.0,29.86,South,190,0.0,0.0,96,0.00,,,0.02,0,weatherlink.com 1.10,2013-04-01 10:41:00,
2013-04-01 06:56:00,43.1,42.0,29.87,South,190,0.0,0.0,97,0.00,,,0.02,0,weatherlink.com 1.10,2013-04-01 10:56:00,
2013-04-01 07:11:00,42.6,42.0,29.88,South,190,0.0,0.0,97,0.00,,,0.02,0,weatherlink.com 1.10,2013-04-01 11:11:00,
2013-04-01 07:26:00,41.8,41.0,29.88,South,190,0.0,0.0,97,0.00,,,0.02,0,weatherlink.com 1.10,2013-04-01 11:26:00,
2013-04-01 07:41:00,41.5,41.0,29.90,South,190,0.0,0.0,97,0.00,,,0.02,9,weatherlink.com 1.10,2013-04-01 11:41:00,
2013-04-01 07:56:00,41.6,41.0,29.90,South,190,0.0,0.0,98,0.00,,,0.02,14,weatherlink.com 1.10,2013-04-01 11:56:00,
2013-04-01 08:11:00,41.9,41.0,29.91,South,190,0.0,0.0,98,0.00,,,0.02,26,weatherlink.com 1.10,2013-04-01 12:11:00,
2013-04-01 08:26:00,42.3,42.0,29.92,South,190,0.0,0.0,98,0.00,,,0.02,33,weatherlink.com 1.10,2013-04-01 12:26:00,
2013-04-01 08:41:00,42.5,42.0,29.93,South,190,0.0,0.0,98,0.00,,,0.02,47,weatherlink.com 1.10,2013-04-01 12:41:00,
2013-04-01 08:57:00,42.9,42.0,29.93,South,190,0.0,0.0,98,0.00,,,0.02,60,weatherlink.com 1.10,2013-04-01 12:57:00,
2013-04-01 09:11:00,43.2,43.0,29.94,South,190,0.0,0.0,99,0.00,,,0.02,83,weatherlink.com 1.10,2013-04-01 13:11:00,
2013-04-01 09:27:00,43.7,44.0,29.94,South,190,1.0,2.0,99,0.00,,,0.02,113,weatherlink.com 1.10,2013-04-01 13:27:00,
2013-04-01 09:42:00,44.1,44.0,29.94,South,190,0.0,1.0,99,0.00,,,0.02,98,weatherlink.com 1.10,2013-04-01 13:42:00,
2013-04-01 09:57:00,44.9,45.0,29.94,SSW,194,0.0,2.0,99,0.00,,,0.02,116,weatherlink.com 1.10,2013-04-01 13:57:00,
2013-04-01 10:12:00,45.8,46.0,29.95,SSW,194,0.0,1.0,99,0.00,,,0.02,128,weatherlink.com 1.10,2013-04-01 14:12:00,
2013-04-01 10:27:00,47.1,47.0,29.95,SSW,194,1.0,2.0,99,0.00,,,0.02,163,weatherlink.com 1.10,2013-04-01 14:27:00,
2013-04-01 10:42:00,48.1,48.0,29.95,SW,231,0.0,2.0,99,0.00,,,0.02,244,weatherlink.com 1.10,2013-04-01 14:42:00,
2013-04-01 10:57:00,49.5,49.0,29.95,NW,305,3.0,4.0,99,0.00,,,0.02,434,weatherlink.com 1.10,2013-04-01 14:57:00,
2013-04-01 11:12:00,50.6,48.0,29.96,WNW,292,0.0,5.0,91,0.00,,,0.02,295,weatherlink.com 1.10,2013-04-01 15:12:00,
2013-04-01 11:27:00,52.6,49.0,29.96,WSW,246,0.0,3.0,88,0.00,,,0.02,304,weatherlink.com 1.10,2013-04-01 15:27:00,
2013-04-01 11:42:00,54.9,50.0,29.96,WNW,301,4.0,4.0,83,0.00,,,0.02,717,weatherlink.com 1.10,2013-04-01 15:42:00,
2013-04-01 11:57:00,56.6,48.0,29.96,NNE,30,2.0,7.0,72,0.00,,,0.02,698,weatherlink.com 1.10,2013-04-01 15:57:00,
2013-04-01 12:12:00,57.8,46.0,29.96,NW,312,3.0,6.0,64,0.00,,,0.02,670,weatherlink.com 1.10,2013-04-01 16:12:00,
2013-04-01 12:27:00,58.6,44.0,29.96,WNW,296,3.0,9.0,59,0.00,,,0.02,784,weatherlink.com 1.10,2013-04-01 16:27:00,
2013-04-01 12:42:00,58.9,46.0,29.96,SSW,205,0.0,5.0,63,0.00,,,0.02,838,weatherlink.com 1.10,2013-04-01 16:42:00,
2013-04-01 12:57:00,59.8,45.0,29.96,WNW,289,1.0,11.0,58,0.00,,,0.02,877,weatherlink.com 1.10,2013-04-01 16:57:00,
2013-04-01 13:12:00,60.0,44.0,29.97,West,263,4.0,8.0,55,0.00,,,0.02,898,weatherlink.com 1.10,2013-04-01 17:12:00,
2013-04-01 13:27:00,60.3,42.0,29.97,NW,304,3.0,7.0,51,0.00,,,0.02,907,weatherlink.com 1.10,2013-04-01 17:27:00,
2013-04-01 13:42:00,60.6,44.0,29.97,NW,311,2.0,7.0,54,0.00,,,0.02,156,weatherlink.com 1.10,2013-04-01 17:42:00,
2013-04-01 13:57:00,59.9,44.0,29.96,NNW,346,4.0,8.0,57,0.00,,,0.02,135,weatherlink.com 1.10,2013-04-01 17:57:00,
2013-04-01 14:12:00,61.2,46.0,29.96,West,269,1.0,8.0,58,0.00,,,0.02,243,weatherlink.com 1.10,2013-04-01 18:12:00,
2013-04-01 14:27:00,61.6,45.0,29.96,WNW,302,5.0,13.0,54,0.00,,,0.02,1030,weatherlink.com 1.10,2013-04-01 18:27:00,
2013-04-01 14:43:00,62.1,44.0,29.96,NW,309,4.0,10.0,52,0.00,,,0.02,981,weatherlink.com 1.10,2013-04-01 18:43:00,
2013-04-01 14:58:00,62.5,44.0,29.95,NW,309,5.0,7.0,52,0.00,,,0.02,1005,weatherlink.com 1.10,2013-04-01 18:58:00,
2013-04-01 15:13:00,61.5,43.0,29.95,SW,227,1.0,11.0,52,0.00,,,0.02,353,weatherlink.com 1.10,2013-04-01 19:13:00,
2013-04-01 15:43:00,60.4,45.0,29.95,NNE,24,5.0,12.0,57,0.00,,,0.02,796,weatherlink.com 1.10,2013-04-01 19:43:00,
2013-04-01 15:58:00,60.6,45.0,29.94,WNW,292,2.0,9.0,57,0.00,,,0.02,221,weatherlink.com 1.10,2013-04-01 19:58:00,
2013-04-01 16:13:00,60.1,43.0,29.95,West,279,6.0,11.0,53,0.00,,,0.02,107,weatherlink.com 1.10,2013-04-01 20:13:00,
2013-04-01 16:28:00,59.6,44.0,29.94,WNW,294,2.0,12.0,56,0.00,,,0.02,165,weatherlink.com 1.10,2013-04-01 20:28:00,
2013-04-01 16:58:00,61.6,44.0,29.94,West,260,1.0,12.0,52,0.00,,,0.02,120,weatherlink.com 1.10,2013-04-01 20:58:00,
2013-04-01 17:13:00,61.1,43.0,29.94,WNW,291,2.0,9.0,52,0.00,,,0.02,151,weatherlink.com 1.10,2013-04-01 21:13:00,
2013-04-01 17:28:00,61.1,43.0,29.93,West,271,2.0,10.0,51,0.00,,,0.02,65,weatherlink.com 1.10,2013-04-01 21:28:00,
2013-04-01 17:43:00,60.7,43.0,29.93,NW,317,4.0,8.0,52,0.00,,,0.02,69,weatherlink.com 1.10,2013-04-01 21:43:00,
2013-04-01 17:58:00,60.5,41.0,29.94,SSW,195,1.0,9.0,49,0.00,,,0.02,74,weatherlink.com 1.10,2013-04-01 21:58:00,
2013-04-01 18:13:00,60.4,42.0,29.94,West,273,3.0,9.0,51,0.00,,,0.02,53,weatherlink.com 1.10,2013-04-01 22:13:00,
2013-04-01 18:28:00,60.1,41.0,29.94,NW,311,4.0,7.0,50,0.00,,,0.02,49,weatherlink.com 1.10,2013-04-01 22:28:00,
2013-04-01 18:43:00,59.7,41.0,29.94,WNW,287,3.0,7.0,51,0.00,,,0.02,46,weatherlink.com 1.10,2013-04-01 22:43:00,
2013-04-01 18:58:00,59.2,40.0,29.95,SE,144,1.0,7.0,49,0.00,,,0.02,40,weatherlink.com 1.10,2013-04-01 22:58:00,
2013-04-01 19:13:00,58.6,40.0,29.95,WNW,301,5.0,6.0,51,0.00,,,0.02,33,weatherlink.com 1.10,2013-04-01 23:13:00,
2013-04-01 19:28:00,57.9,40.0,29.95,South,179,2.0,5.0,52,0.00,,,0.02,25,weatherlink.com 1.10,2013-04-01 23:28:00,
2013-04-01 19:43:00,57.4,40.0,29.96,NW,313,3.0,7.0,53,0.00,,,0.02,14,weatherlink.com 1.10,2013-04-01 23:43:00,
2013-04-01 19:58:00,56.6,41.0,29.96,SSW,206,1.0,3.0,56,0.00,,,0.02,0,weatherlink.com 1.10,2013-04-01 23:58:00,
2013-04-01 20:13:00,55.9,40.0,29.96,NNW,331,2.0,5.0,55,0.00,,,0.02,0,weatherlink.com 1.10,2013-04-02 00:13:00,
2013-04-01 20:28:00,55.4,40.0,29.96,NW,315,0.0,6.0,56,0.00,,,0.02,0,weatherlink.com 1.10,2013-04-02 00:28:00,
2013-04-01 20:43:00,55.0,39.0,29.97,NW,304,0.0,4.0,56,0.00,,,0.02,0,weatherlink.com 1.10,2013-04-02 00:43:00,
2013-04-01 20:58:00,54.5,40.0,29.97,South,182,2.0,5.0,58,0.00,,,0.02,0,weatherlink.com 1.10,2013-04-02 00:58:00,
2013-04-01 21:13:00,54.0,40.0,29.97,SSE,149,0.0,3.0,59,0.00,,,0.02,0,weatherlink.com 1.10,2013-04-02 01:13:00,
2013-04-01 21:28:00,53.3,40.0,29.98,SW,235,0.0,1.0,60,0.00,,,0.02,0,weatherlink.com 1.10,2013-04-02 01:28:00,
2013-04-01 21:43:00,52.2,40.0,29.98,SW,235,0.0,1.0,63,0.00,,,0.02,0,weatherlink.com 1.10,2013-04-02 01:43:00,
2013-04-01 21:58:00,51.2,40.0,29.99,SW,235,0.0,2.0,65,0.00,,,0.02,0,weatherlink.com 1.10,2013-04-02 01:58:00,
2013-04-01 22:13:00,50.6,40.0,30.00,SW,235,0.0,1.0,66,0.00,,,0.02,0,weatherlink.com 1.10,2013-04-02 02:13:00,
2013-04-01 22:28:00,50.6,39.0,30.00,SSW,192,1.0,6.0,65,0.00,,,0.02,0,weatherlink.com 1.10,2013-04-02 02:28:00,
2013-04-01 22:43:00,50.6,39.0,30.00,West,271,0.0,2.0,65,0.00,,,0.02,0,weatherlink.com 1.10,2013-04-02 02:43:00,
2013-04-01 22:58:00,50.1,39.0,30.01,WSW,249,0.0,2.0,65,0.00,,,0.02,0,weatherlink.com 1.10,2013-04-02 02:58:00,
2013-04-01 23:13:00,50.3,38.0,30.01,WNW,298,2.0,4.0,62,0.00,,,0.02,0,weatherlink.com 1.10,2013-04-02 03:13:00,
2013-04-01 23:28:00,50.1,37.0,30.01,WNW,292,0.0,4.0,61,0.00,,,0.02,0,weatherlink.com 1.10,2013-04-02 03:28:00,
2013-04-01 23:43:00,49.9,36.0,30.01,WSW,248,1.0,4.0,60,0.00,,,0.02,0,weatherlink.com 1.10,2013-04-02 03:43:00,
2013-04-01 23:58:00,49.7,35.0,30.00,NW,316,2.0,7.0,58,0.00,,,0.02,0,weatherlink.com 1.10,2013-04-02 03:58:00,